EW4353 Weather Reports


time (UTC)temp
C
wind
direction
speed
KPH
gust
KPH
rain 1hr
cm
rain 24hr
cm
rain mn
cm
humidity
%
barometer
mb
20260507134507 2 229 0.0 0.0 0.00 0.00 0.00 77 1011.9
20260507133010 0 229 0.0 0.0 0.00 0.00 0.00 79 1011.7
20260507131502 0 229 0.0 0.0 0.00 0.00 0.00 77 1011.7
20260507130003 -2 229 0.0 0.0 0.00 0.00 0.00 76 1011.6
20260507124606 -3 229 0.0 0.0 0.00 0.00 0.00 77 1011.4
20260507123059 -4 229 0.0 0.0 0.00 0.00 0.00 77 1011.3
20260507121558 -5 229 0.0 0.0 0.00 0.00 0.00 78 1011.2
20260507120059 -6 229 0.0 0.0 0.00 0.00 0.00 80 1011.0
20260507114603 -6 229 0.0 0.0 0.00 0.00 0.00 80 1010.7
20260507113056 -6 229 0.0 0.0 0.00 0.00 0.00 81 1010.8
20260507111601 -6 229 0.0 0.0 0.00 0.00 0.00 81 1010.7
20260507110055 -6 229 0.0 0.0 0.00 0.00 0.00 81 1010.7
20260507104554 -6 229 0.0 0.0 0.00 0.00 0.00 81 1010.6
20260507103053 -5 229 0.0 0.0 0.00 0.00 0.00 81 1010.4
20260507101601 -5 229 0.0 0.0 0.00 0.00 0.00 80 1010.6
20260507100045 -4 229 0.0 0.0 0.00 0.00 0.00 80 1010.5
20260507094544 -3 229 0.0 0.0 0.00 0.00 0.00 79 1010.6
20260507093044 -3 229 0.0 0.0 0.00 0.00 0.00 79 1010.6
20260507091540 -3 229 0.0 0.0 0.00 0.00 0.00 79 1010.6
20260507090038 -3 229 0.0 0.0 0.00 0.00 0.00 78 1010.6
20260507084539 -2 229 0.0 0.0 0.00 0.00 0.00 77 1010.6
20260507083033 -2 229 0.0 0.0 0.00 0.00 0.00 77 1010.5
20260507081536 -2 229 0.0 0.0 0.00 0.00 0.00 77 1010.6
20260507080029 -2 229 0.0 0.0 0.00 0.00 0.00 76 1010.7
20260507074526 -1 229 0.0 0.0 0.00 0.00 0.00 74 1010.8
20260507073022 -1 229 0.0 0.0 0.00 0.00 0.00 73 1010.9
20260507071521 -1 229 0.0 0.0 0.00 0.00 0.00 72 1011.0
20260507070017 0 229 0.0 0.0 0.00 0.00 0.00 71 1011.1
20260507064516 0 229 0.0 0.0 0.00 0.00 0.00 71 1011.1
20260507063012 0 229 0.0 0.0 0.00 0.00 0.00 69 1011.2
20260507061510 0 229 0.0 0.0 0.00 0.00 0.00 68 1011.2
20260507060006 1 229 0.0 0.0 0.00 0.00 0.00 67 1011.2
20260507054505 1 229 0.0 0.0 0.00 0.00 0.00 67 1011.3
20260507053005 1 229 0.0 0.0 0.00 0.00 0.00 65 1011.1
20260507051504 2 229 0.0 0.0 0.00 0.00 0.00 64 1011.0
20260507050008 2 229 0.0 0.0 0.00 0.00 0.00 64 1011.2
20260507044504 2 229 0.0 0.0 0.00 0.00 0.00 67 1011.1
20260507043003 1 229 0.0 0.0 0.00 0.00 0.00 65 1011.2
20260507041508 1 229 0.0 0.0 0.00 0.00 0.00 65 1011.3
20260507040002 2 229 0.0 0.0 0.00 0.00 0.00 61 1011.2
20260507034506 3 229 0.0 0.0 0.00 0.00 0.00 60 1011.2
20260507033100 4 229 0.0 0.0 0.00 0.00 0.00 57 1011.2
20260507031604 5 229 0.0 0.0 0.00 0.00 0.00 56 1011.4
20260507024604 5 229 0.0 0.0 0.00 0.00 0.00 51 1011.5
20260507023111 6 229 0.0 0.0 0.00 0.00 0.00 50 1011.4
20260507021557 7 229 0.0 0.0 0.00 0.00 0.00 47 1011.5
20260507020056 8 229 0.0 0.0 0.00 0.00 0.00 41 1011.6
20260507014606 10 229 0.0 0.0 0.00 0.00 0.00 38 1011.7
20260507013111 11 229 0.0 0.0 0.00 0.00 0.00 36 1011.9
20260507011554 11 229 0.0 0.0 0.00 0.00 0.00 36 1012.0
20260507010051 11 229 0.0 0.0 0.00 0.00 0.00 37 1012.1
20260507004550 11 229 0.0 0.0 0.00 0.00 0.00 36 1012.2
20260507003048 11 229 0.0 0.0 0.00 0.00 0.00 34 1012.3
20260507001608 12 229 0.0 0.0 0.00 0.00 0.00 32 1012.3
20260507000048 12 229 0.0 0.0 0.00 0.00 0.00 34 1012.4
20260506234546 12 229 0.0 0.0 0.00 0.00 0.00 32 1012.5
20260506233047 12 229 0.0 0.0 0.00 0.00 0.00 31 1012.7
20260506231547 12 229 0.0 0.0 0.00 0.00 0.00 32 1012.8
20260506230042 12 229 0.0 0.0 0.00 0.00 0.00 31 1013.0
20260506224540 12 229 0.0 0.0 0.00 0.00 0.00 31 1013.2
20260506223049 13 229 0.0 0.0 0.00 0.00 0.00 29 1013.4
20260506221538 13 229 0.0 0.0 0.00 0.00 0.00 30 1013.7
20260506220037 13 229 0.0 0.0 0.00 0.00 0.00 29 1013.9
20260506214535 12 229 0.0 0.0 0.00 0.00 0.00 30 1014.1
20260506213036 12 229 0.0 0.0 0.00 0.00 0.00 30 1014.4
20260506211530 12 229 0.0 0.0 0.00 0.00 0.00 31 1014.5
20260506210031 12 229 0.0 0.0 0.00 0.00 0.00 32 1014.9
20260506204526 12 229 0.0 0.0 0.00 0.00 0.00 31 1015.2
20260506203023 12 229 0.0 0.0 0.00 0.00 0.00 33 1015.4
20260506201523 12 229 0.0 0.0 0.00 0.00 0.00 31 1015.5
20260506200021 12 229 0.0 0.0 0.00 0.00 0.00 30 1015.8
20260506194518 12 229 0.0 0.0 0.00 0.00 0.00 32 1016.0
20260506193014 11 229 0.0 0.0 0.00 0.00 0.00 33 1016.4
20260506191516 11 229 0.0 0.0 0.00 0.00 0.00 32 1016.5
20260506190012 11 229 0.0 0.0 0.00 0.00 0.00 31 1016.6
20260506184509 11 229 0.0 0.0 0.00 0.00 0.00 33 1016.8
20260506183009 11 229 0.0 0.0 0.00 0.00 0.00 33 1017.1
20260506181504 10 229 0.0 0.0 0.00 0.00 0.00 32 1017.3
20260506180005 10 229 0.0 0.0 0.00 0.00 0.00 34 1017.7
20260506174501 10 229 0.0 0.0 0.00 0.00 0.00 34 1017.8
20260506173123 10 229 0.0 0.0 0.00 0.00 0.00 36 1018.0
20260506171602 10 229 0.0 0.0 0.00 0.00 0.00 36 1018.2
20260506170057 9 229 0.0 0.0 0.00 0.00 0.00 35 1018.3
20260506164553 9 229 0.0 0.0 0.00 0.00 0.00 34 1018.4
20260506163052 8 229 0.0 0.0 0.00 0.00 0.00 36 1018.6
20260506161555 8 229 0.0 0.0 0.00 0.00 0.00 36 1018.7
20260506160057 8 229 0.0 0.0 0.00 0.00 0.00 37 1018.8
20260506154545 8 229 0.0 0.0 0.00 0.00 0.00 42 1019.0
20260506153044 7 229 0.0 0.0 0.00 0.00 0.00 42 1019.1
20260506151540 7 229 0.0 0.0 0.00 0.00 0.00 48 1019.2
20260506150036 6 229 0.0 0.0 0.00 0.00 0.00 51 1019.1
20260506144531 5 229 0.0 0.0 0.00 0.00 0.00 55 1019.3
20260506143028 4 229 0.0 0.0 0.00 0.00 0.00 57 1019.4
20260506141524 3 229 0.0 0.0 0.00 0.00 0.00 58 1019.4
20260506140021 3 229 0.0 0.0 0.00 0.00 0.00 61 1019.5